Location: *
(40.7873°S, 98.7174°E)
Time: 21:09:27
(UTC+00:00)

Cosmos 1153 Rocket - Pass Details

Date: 15 October 2022
Orbit: 953 x 1007 km, 82.9° (Epoch: 05 December)

Event Time Altitude Azimuth Distance (km) Brightness Sun altitude
Rises 16:54:02 0° 171° (S) 3,671 8.3 -40.4°
Reaches altitude 10° 16:57:47 10° 149° (SSE) 2,713 7.3 -40.4°
Enters shadow 17:00:17 15° 125° (SE) 2,365 6.7 -40.5°
